Truth Or Consequences, NM

3:05 AM MDT on April 25, 2018 (GMT -0600)
Truth Or Consequences Municipal

Weather History for KTCS - October, 2012

Change the Weather History Date:

Wednesday, October 3, 2012

  Actual Average Record
Temperature  
Mean Temperature 78 °F -  
Max Temperature 91 °F 79 °F 91 °F (2000)
Min Temperature 64 °F 52 °F 49 °F (2014)
Degree Days  
Heating Degree Days 0    
Month to date heating degree days  
Since 1 July heating degree days  
Cooling Degree Days 12    
Month to date cooling degree days  
Year to date cooling degree days  
Growing Degree Days 28 (Base 50)    
Moisture  
Dew Point 24 °F    
Average Humidity 14    
Maximum Humidity 23    
Minimum Humidity 4    
Precipitation  
Precipitation 0.00 in - 0.15 in (2003)
Month to date precipitation  
Year to date precipitation  
Sea Level Pressure  
Sea Level Pressure 29.81 in    
Wind  
Wind Speed 9 mph (NW)    
Max Wind Speed 15 mph    
Max Gust Speed 28 mph    
Visibility 10 miles    
Events      
T = Trace of Precipitation, MM = Missing Value Source: NWS Daily Summary

Daily Weather History Graph

Daily Weather History Graph

Search for Another Location

Airport or City:

Astronomy

Oct. 03, 2012 Rise Set
Actual Time 7:05 AM MDT 6:50 PM MDT
Civil Twilight 6:40 AM MDT 7:14 PM MDT
Nautical Twilight 6:11 AM MDT 7:43 PM MDT
Astronomical Twilight 5:42 AM MDT 8:12 PM MDT
Moon 8:57 PM MDT (10/3) 10:18 AM MDT (10/3)
Length of Visible Light 12h 34m
Length of Day
11h 45m
Waning Gibbous, 88% of the Moon is Illuminated
Oct 3
Waning Gibbous
Oct 8
Last Quarter
Oct 15
New
Oct 21
First Quarter
Oct 29
Full

Hourly Weather History & Observations

Time (MDT) Temp. Dew Point Humidity Pressure Visibility Wind Dir Wind Speed Gust Speed Precip Events Conditions
12:53 AM 66.9 °F 24.1 °F 20% 29.79 in 10.0 mi NNW 3.5 mph - N/A   Clear
1:53 AM 64.0 °F 25.0 °F 23% 29.80 in 10.0 mi West 6.9 mph - N/A   Clear
2:53 AM 68.0 °F 23.0 °F 18% 29.77 in 10.0 mi NW 11.5 mph - N/A   Clear
3:53 AM 64.9 °F 23.0 °F 20% 29.78 in 10.0 mi NW 8.1 mph - N/A   Clear
4:53 AM 64.9 °F 25.0 °F 22% 29.79 in 10.0 mi NW 10.4 mph - N/A   Clear
5:53 AM 66.0 °F 26.1 °F 22% 29.81 in 10.0 mi NNW 11.5 mph - N/A   Clear
6:53 AM 66.0 °F 27.0 °F 23% 29.83 in 10.0 mi NNW 11.5 mph 20.7 mph N/A   Clear
7:53 AM 66.9 °F 27.0 °F 22% 29.84 in 10.0 mi NW 11.5 mph - N/A   Clear
8:53 AM 73.9 °F 27.0 °F 18% 29.85 in 10.0 mi NW 15.0 mph 21.9 mph N/A   Clear
9:53 AM 79.0 °F 27.0 °F 15% 29.87 in 10.0 mi NNW 10.4 mph 19.6 mph N/A   Clear
10:53 AM 84.0 °F 26.1 °F 12% 29.85 in 10.0 mi NNW 13.8 mph 24.2 mph N/A   Clear
11:53 AM 84.9 °F 26.1 °F 12% 29.84 in 10.0 mi NW 9.2 mph 18.4 mph N/A   Clear
12:53 PM 87.1 °F 26.1 °F 11% 29.80 in 10.0 mi NW 11.5 mph 27.6 mph N/A   Clear
1:53 PM 91.0 °F 25.0 °F 9% 29.77 in 10.0 mi WNW 12.7 mph 21.9 mph N/A   Clear
2:53 PM 91.0 °F 23.0 °F 8% 29.73 in 10.0 mi NW 10.4 mph 17.3 mph N/A   Clear
3:53 PM 91.0 °F 23.0 °F 8% 29.74 in 10.0 mi WNW 6.9 mph - N/A   Clear
4:53 PM 91.9 °F 21.9 °F 8% 29.73 in 10.0 mi West 13.8 mph 17.3 mph N/A   Clear
5:53 PM 90.0 °F 24.1 °F 9% 29.74 in 10.0 mi West 6.9 mph 16.1 mph N/A   Clear
6:53 PM 86.0 °F 19.9 °F 9% 29.77 in 10.0 mi NW 9.2 mph - N/A   Clear
7:53 PM 82.9 °F 19.0 °F 9% 29.81 in 10.0 mi West 9.2 mph - N/A   Clear
8:53 PM 78.1 °F 24.1 °F 14% 29.83 in 10.0 mi West 6.9 mph - N/A   Clear
9:53 PM 72.0 °F 21.0 °F 15% 29.84 in 10.0 mi WNW 8.1 mph - N/A   Clear
10:53 PM 72.0 °F 25.0 °F 17% 29.86 in 10.0 mi WNW 9.2 mph - N/A   Clear
11:53 PM 69.1 °F 23.0 °F 18% 29.88 in 10.0 mi NW 10.4 mph - N/A   Clear